Powrót do katalogu

STARLINK-30253

AktywnyŁącznośćVLEO
NORAD 57525·PAYLOAD·🇺🇸 United States

Wystrzelony Aug 8, 2023 z Vandenberg Space Force Base

Loading…

Następne Przeloty (najbliższe 24 godziny)

TLE

ŚwieżeSource: CelesTrak SupGP

Epoka: Sep 15, 2026, 02:21 UTC

1 57525C 23115E   26258.09840278  .00005102  00000+0  18477-3 0  2582
2 57525  43.0018  12.0618 0001548 266.7835 222.3994 15.27577173    12

Śledź STARLINK-30253 w czasie rzeczywistym z AllMySat

Download on the App Store